owner,sensor,date,latitude,longitude,vertical_datum,wind_speed,wind_to_direction,wind_speed_of_gust,qcFlag 
ADCP,ioos:station:wmo:42364:1,2012-04-01T00:30:00Z,29.0600,-88.0900,122.0,5.1,229.0,99.0,'11111222,11111222,11144222' 
ADCP,ioos:station:wmo:42364:1,2012-04-01T01:30:00Z,29.0600,-88.0900,122.0,4.5,233.0,99.0,'11111222,11111222,11144222' 
ADCP,ioos:station:wmo:42364:1,2012-04-01T02:30:00Z,29.0600,-88.0900,122.0,5.0,232.0,99.0,'11111222,11111222,11144222' 
ADCP,ioos:station:wmo:42364:1,2012-04-01T03:30:00Z,29.0600,-88.0900,122.0,4.9,233.0,99.0,'11111222,11111222,11144222' 
ADCP,ioos:station:wmo:42364:1,2012-04-01T05:30:00Z,29.0600,-88.0900,122.0,2.4,240.0,99.0,'11111222,11111222,11144222' 
ADCP,ioos:station:wmo:42364:1,2012-04-01T06:30:00Z,29.0600,-88.0900,122.0,1.3,289.0,99.0,'11111222,11111222,11144222' 
ADCP,ioos:station:wmo:42364:1,2012-04-01T08:30:00Z,29.0600,-88.0900,122.0,3.2,232.0,99.0,'11111222,11111222,11144222' 
ADCP,ioos:station:wmo:42364:1,2012-04-01T09:30:00Z,29.0600,-88.0900,122.0,4.3,217.0,99.0,'11111222,11111222,11144222' 
ADCP,ioos:station:wmo:42364:1,2012-04-01T10:30:00Z,29.0600,-88.0900,122.0,5.0,221.0,99.0,'11111222,11111222,11144222' 
ADCP,ioos:station:wmo:42364:1,2012-04-01T11:30:00Z,29.0600,-88.0900,122.0,3.9,230.0,99.0,'11111222,11111222,11144222' 
ADCP,ioos:station:wmo:42364:1,2012-04-01T12:30:00Z,29.0600,-88.0900,122.0,1.8,265.0,99.0,'11111222,11111222,11144222' 
ADCP,ioos:station:wmo:42364:1,2012-04-01T13:30:00Z,29.0600,-88.0900,122.0,0.6,312.0,99.0,'11111222,11111222,11144222' 
ADCP,ioos:station:wmo:42364:1,2012-04-01T14:30:00Z,29.0600,-88.0900,122.0,1.0,285.0,99.0,'11111222,11111222,11144222' 
ADCP,ioos:station:wmo:42364:1,2012-04-01T15:30:00Z,29.0600,-88.0900,122.0,2.3,219.0,99.0,'11111222,11111222,11144222' 
ADCP,ioos:station:wmo:42364:1,2012-04-01T17:30:00Z,29.0600,-88.0900,122.0,1.6,218.0,99.0,'11111222,11111222,11144222' 
ADCP,ioos:station:wmo:42364:1,2012-04-01T18:30:00Z,29.0600,-88.0900,122.0,1.4,210.0,99.0,'11111222,11111222,11144222' 
ADCP,ioos:station:wmo:42364:1,2012-04-01T19:30:00Z,29.0600,-88.0900,122.0,2.2,162.0,99.0,'11111222,11111222,11144222' 
ADCP,ioos:station:wmo:42364:1,2012-04-01T20:30:00Z,29.0600,-88.0900,122.0,3.0,162.0,99.0,'11111222,11111222,11144222' 
ADCP,ioos:station:wmo:42364:1,2012-04-01T21:30:00Z,29.0600,-88.0900,122.0,3.5,161.0,99.0,'11111222,11111222,11144222' 
ADCP,ioos:station:wmo:42364:1,2012-04-01T22:30:00Z,29.0600,-88.0900,122.0,3.4,162.0,99.0,'11111222,11111222,11144222' 
ADCP,ioos:station:wmo:42364:1,2012-04-01T23:30:00Z,29.0600,-88.0900,122.0,4.3,168.0,99.0,'11111222,11111222,11144222' 
ADCP,ioos:station:wmo:42364:1,2012-04-02T00:30:00Z,29.0600,-88.0900,122.0,4.4,177.0,99.0,'11111222,11111222,11144222' 
ADCP,ioos:station:wmo:42364:1,2012-04-02T01:30:00Z,29.0600,-88.0900,122.0,4.6,176.0,99.0,'11111222,11111222,11144222' 
ADCP,ioos:station:wmo:42364:1,2012-04-02T02:30:00Z,29.0600,-88.0900,122.0,4.9,170.0,99.0,'11111222,11111222,11144222' 
ADCP,ioos:station:wmo:42364:1,2012-04-02T03:30:00Z,29.0600,-88.0900,122.0,4.9,167.0,99.0,'11111222,11111222,11144222' 
ADCP,ioos:station:wmo:42364:1,2012-04-02T04:30:00Z,29.0600,-88.0900,122.0,4.5,155.0,99.0,'11111222,11111222,11144222' 
ADCP,ioos:station:wmo:42364:1,2012-04-02T05:30:00Z,29.0600,-88.0900,122.0,5.0,160.0,99.0,'11111222,11111222,11144222' 
ADCP,ioos:station:wmo:42364:1,2012-04-02T06:30:00Z,29.0600,-88.0900,122.0,5.8,170.0,99.0,'11111222,11111222,11144222' 
ADCP,ioos:station:wmo:42364:1,2012-04-02T07:30:00Z,29.0600,-88.0900,122.0,5.5,170.0,99.0,'11111222,11111222,11144222' 
ADCP,ioos:station:wmo:42364:1,2012-04-02T08:30:00Z,29.0600,-88.0900,122.0,5.1,170.0,99.0,'11111222,11111222,11144222' 
ADCP,ioos:station:wmo:42364:1,2012-04-02T09:30:00Z,29.0600,-88.0900,122.0,5.2,177.0,99.0,'11111222,11111222,11144222' 
ADCP,ioos:station:wmo:42364:1,2012-04-02T10:30:00Z,29.0600,-88.0900,122.0,4.6,173.0,99.0,'11111222,11111222,11144222' 
ADCP,ioos:station:wmo:42364:1,2012-04-02T11:30:00Z,29.0600,-88.0900,122.0,3.4,162.0,99.0,'11111222,11111222,11144222' 
ADCP,ioos:station:wmo:42364:1,2012-04-02T12:30:00Z,29.0600,-88.0900,122.0,3.5,147.0,99.0,'11111222,11111222,11144222' 
ADCP,ioos:station:wmo:42364:1,2012-04-02T13:30:00Z,29.0600,-88.0900,122.0,3.3,149.0,99.0,'11111222,11111222,11144222' 
ADCP,ioos:station:wmo:42364:1,2012-04-02T14:30:00Z,29.0600,-88.0900,122.0,4.0,146.0,99.0,'11111222,11111222,11144222' 
ADCP,ioos:station:wmo:42364:1,2012-04-02T16:30:00Z,29.0600,-88.0900,122.0,5.9,159.0,99.0,'11111222,11111222,11144222' 
ADCP,ioos:station:wmo:42364:1,2012-04-02T17:30:00Z,29.0600,-88.0900,122.0,6.0,151.0,99.0,'11111222,11111222,11144222' 
ADCP,ioos:station:wmo:42364:1,2012-04-02T18:30:00Z,29.0600,-88.0900,122.0,5.3,141.0,99.0,'11111222,11111222,11144222' 
ADCP,ioos:station:wmo:42364:1,2012-04-02T19:30:00Z,29.0600,-88.0900,122.0,4.7,145.0,99.0,'11111222,11111222,11144222' 
ADCP,ioos:station:wmo:42364:1,2012-04-02T20:30:00Z,29.0600,-88.0900,122.0,5.3,148.0,99.0,'11111222,11111222,11144222' 
ADCP,ioos:station:wmo:42364:1,2012-04-02T21:30:00Z,29.0600,-88.0900,122.0,5.5,141.0,99.0,'11111222,11111222,11144222' 
ADCP,ioos:station:wmo:42364:1,2012-04-02T22:30:00Z,29.0600,-88.0900,122.0,6.2,148.0,99.0,'11111222,11111222,11144222' 
ADCP,ioos:station:wmo:42364:1,2012-04-02T23:30:00Z,29.0600,-88.0900,122.0,6.4,155.0,99.0,'11111222,11111222,11144222' 
ADCP,ioos:station:wmo:42364:1,2012-04-03T01:30:00Z,29.0600,-88.0900,122.0,6.5,151.0,99.0,'11111222,11111222,11144222' 
ADCP,ioos:station:wmo:42364:1,2012-04-03T02:30:00Z,29.0600,-88.0900,122.0,6.7,155.0,99.0,'11111222,11111222,11144222' 
ADCP,ioos:station:wmo:42364:1,2012-04-03T03:30:00Z,29.0600,-88.0900,122.0,5.3,157.0,99.0,'11111222,11111222,11144222' 
ADCP,ioos:station:wmo:42364:1,2012-04-03T04:30:00Z,29.0600,-88.0900,122.0,6.8,165.0,99.0,'11111222,11111222,11144222' 
ADCP,ioos:station:wmo:42364:1,2012-04-03T05:30:00Z,29.0600,-88.0900,122.0,6.3,167.0,99.0,'11111222,11111222,11144222' 
ADCP,ioos:station:wmo:42364:1,2012-04-03T06:30:00Z,29.0600,-88.0900,122.0,6.6,248.0,99.0,'11111222,11111222,11144222' 
ADCP,ioos:station:wmo:42364:1,2012-04-03T07:30:00Z,29.0600,-88.0900,122.0,12.3,349.0,99.0,'11111222,11111222,11144222' 
ADCP,ioos:station:wmo:42364:1,2012-04-03T08:30:00Z,29.0600,-88.0900,122.0,10.9,351.0,99.0,'11111222,11111222,11144222' 
ADCP,ioos:station:wmo:42364:1,2012-04-03T09:30:00Z,29.0600,-88.0900,122.0,10.8,345.0,99.0,'11111222,11111222,11144222' 
ADCP,ioos:station:wmo:42364:1,2012-04-03T10:30:00Z,29.0600,-88.0900,122.0,8.7,12.0,99.0,'11111222,11111222,11144222' 
ADCP,ioos:station:wmo:42364:1,2012-04-03T11:30:00Z,29.0600,-88.0900,122.0,5.5,44.0,99.0,'11111222,11111222,11144222' 
ADCP,ioos:station:wmo:42364:1,2012-04-03T12:30:00Z,29.0600,-88.0900,122.0,5.7,88.0,99.0,'11111222,11111222,11144222' 
ADCP,ioos:station:wmo:42364:1,2012-04-03T14:30:00Z,29.0600,-88.0900,122.0,6.8,143.0,99.0,'11111222,11111222,11144222' 
ADCP,ioos:station:wmo:42364:1,2012-04-03T15:30:00Z,29.0600,-88.0900,122.0,4.2,137.0,99.0,'11111222,11111222,11144222' 
ADCP,ioos:station:wmo:42364:1,2012-04-03T16:30:00Z,29.0600,-88.0900,122.0,4.3,146.0,99.0,'11111222,11111222,11144222' 
ADCP,ioos:station:wmo:42364:1,2012-04-03T17:30:00Z,29.0600,-88.0900,122.0,7.5,155.0,99.0,'11111222,11111222,11144222' 
ADCP,ioos:station:wmo:42364:1,2012-04-03T18:30:00Z,29.0600,-88.0900,122.0,7.9,165.0,99.0,'11111222,11111222,11144222' 
ADCP,ioos:station:wmo:42364:1,2012-04-03T20:30:00Z,29.0600,-88.0900,122.0,5.6,160.0,99.0,'11111222,11111222,11144222' 
ADCP,ioos:station:wmo:42364:1,2012-04-03T21:30:00Z,29.0600,-88.0900,122.0,5.6,160.0,99.0,'11111222,11111222,11144222' 
ADCP,ioos:station:wmo:42364:1,2012-04-03T22:30:00Z,29.0600,-88.0900,122.0,5.6,167.0,99.0,'11111222,11111222,11144222' 
ADCP,ioos:station:wmo:42364:1,2012-04-03T23:30:00Z,29.0600,-88.0900,122.0,4.4,164.0,99.0,'11111222,11111222,11144222' 
ADCP,ioos:station:wmo:42364:1,2012-04-04T00:30:00Z,29.0600,-88.0900,122.0,4.2,155.0,99.0,'11111222,11111222,11144222' 
ADCP,ioos:station:wmo:42364:1,2012-04-04T01:30:00Z,29.0600,-88.0900,122.0,5.2,159.0,99.0,'11111222,11111222,11144222' 
ADCP,ioos:station:wmo:42364:1,2012-04-04T02:30:00Z,29.0600,-88.0900,122.0,5.6,156.0,99.0,'11111222,11111222,11144222' 
ADCP,ioos:station:wmo:42364:1,2012-04-04T03:30:00Z,29.0600,-88.0900,122.0,5.8,154.0,99.0,'11111222,11111222,11144222' 
ADCP,ioos:station:wmo:42364:1,2012-04-04T04:30:00Z,29.0600,-88.0900,122.0,7.6,160.0,99.0,'11111222,11111222,11144222' 
ADCP,ioos:station:wmo:42364:1,2012-04-04T05:30:00Z,29.0600,-88.0900,122.0,7.5,165.0,99.0,'11111222,11111222,11144222' 
ADCP,ioos:station:wmo:42364:1,2012-04-04T06:30:00Z,29.0600,-88.0900,122.0,6.0,160.0,99.0,'11111222,11111222,11144222' 
ADCP,ioos:station:wmo:42364:1,2012-04-04T07:30:00Z,29.0600,-88.0900,122.0,5.1,152.0,99.0,'11111222,11111222,11144222' 
ADCP,ioos:station:wmo:42364:1,2012-04-04T08:30:00Z,29.0600,-88.0900,122.0,3.7,142.0,99.0,'11111222,11111222,11144222' 
ADCP,ioos:station:wmo:42364:1,2012-04-04T09:30:00Z,29.0600,-88.0900,122.0,5.6,151.0,99.0,'11111222,11111222,11144222' 
ADCP,ioos:station:wmo:42364:1,2012-04-04T10:30:00Z,29.0600,-88.0900,122.0,5.2,151.0,99.0,'11111222,11111222,11144222' 
ADCP,ioos:station:wmo:42364:1,2012-04-04T11:30:00Z,29.0600,-88.0900,122.0,5.8,141.0,99.0,'11111222,11111222,11144222' 
ADCP,ioos:station:wmo:42364:1,2012-04-04T12:30:00Z,29.0600,-88.0900,122.0,5.8,150.0,99.0,'11111222,11111222,11144222' 
ADCP,ioos:station:wmo:42364:1,2012-04-04T13:30:00Z,29.0600,-88.0900,122.0,17.7,345.0,99.0,'11111222,11111222,11144222' 
ADCP,ioos:station:wmo:42364:1,2012-04-04T14:30:00Z,29.0600,-88.0900,122.0,16.4,356.0,99.0,'11111222,11111222,11144222' 
ADCP,ioos:station:wmo:42364:1,2012-04-04T15:30:00Z,29.0600,-88.0900,122.0,13.9,344.0,99.0,'11111222,11111222,11144222' 
ADCP,ioos:station:wmo:42364:1,2012-04-04T16:30:00Z,29.0600,-88.0900,122.0,18.4,336.0,99.0,'11111222,11111222,11144222' 
ADCP,ioos:station:wmo:42364:1,2012-04-04T17:30:00Z,29.0600,-88.0900,122.0,17.4,343.0,99.0,'11111222,11111222,11144222' 
ADCP,ioos:station:wmo:42364:1,2012-04-04T18:30:00Z,29.0600,-88.0900,122.0,6.4,1.0,99.0,'11111222,11111222,11144222' 
ADCP,ioos:station:wmo:42364:1,2012-04-04T20:30:00Z,29.0600,-88.0900,122.0,99.0,182.0,99.0,'11144222,11111222,11144222' 
ADCP,ioos:station:wmo:42364:1,2012-04-04T21:30:00Z,29.0600,-88.0900,122.0,7.7,190.0,99.0,'11111222,11111222,11144222' 
ADCP,ioos:station:wmo:42364:1,2012-04-04T22:30:00Z,29.0600,-88.0900,122.0,8.6,171.0,99.0,'11111222,11111222,11144222' 
ADCP,ioos:station:wmo:42364:1,2012-04-04T23:30:00Z,29.0600,-88.0900,122.0,6.5,182.0,99.0,'11111222,11111222,11144222' 
ADCP,ioos:station:wmo:42364:1,2012-04-05T00:30:00Z,29.0600,-88.0900,122.0,99.0,185.0,99.0,'11144222,11111222,11144222' 
ADCP,ioos:station:wmo:42364:1,2012-04-05T02:30:00Z,29.0600,-88.0900,122.0,3.7,235.0,99.0,'11111222,11111222,11144222' 
ADCP,ioos:station:wmo:42364:1,2012-04-05T03:30:00Z,29.0600,-88.0900,122.0,2.3,271.0,99.0,'11111222,11111222,11144222' 
ADCP,ioos:station:wmo:42364:1,2012-04-05T04:30:00Z,29.0600,-88.0900,122.0,2.4,274.0,99.0,'11111222,11111222,11144222' 
ADCP,ioos:station:wmo:42364:1,2012-04-05T06:30:00Z,29.0600,-88.0900,122.0,2.3,301.0,99.0,'11111222,11111222,11144222' 
ADCP,ioos:station:wmo:42364:1,2012-04-05T07:30:00Z,29.0600,-88.0900,122.0,3.5,304.0,99.0,'11111222,11111222,11144222' 
ADCP,ioos:station:wmo:42364:1,2012-04-05T08:30:00Z,29.0600,-88.0900,122.0,4.7,324.0,99.0,'11111222,11111222,11144222' 
ADCP,ioos:station:wmo:42364:1,2012-04-05T09:30:00Z,29.0600,-88.0900,122.0,3.1,325.0,99.0,'11111222,11111222,11144222' 
ADCP,ioos:station:wmo:42364:1,2012-04-05T10:30:00Z,29.0600,-88.0900,122.0,0.4,338.0,99.0,'11111222,11111222,11144222' 
ADCP,ioos:station:wmo:42364:1,2012-04-05T11:30:00Z,29.0600,-88.0900,122.0,1.2,304.0,99.0,'11111222,11111222,11144222' 
ADCP,ioos:station:wmo:42364:1,2012-04-05T13:30:00Z,29.0600,-88.0900,122.0,1.6,270.0,99.0,'11111222,11111222,11144222' 
ADCP,ioos:station:wmo:42364:1,2012-04-05T14:30:00Z,29.0600,-88.0900,122.0,4.1,304.0,99.0,'11111222,11111222,11144222' 
ADCP,ioos:station:wmo:42364:1,2012-04-05T15:30:00Z,29.0600,-88.0900,122.0,7.2,319.0,99.0,'11111222,11111222,11144222' 
ADCP,ioos:station:wmo:42364:1,2012-04-05T16:30:00Z,29.0600,-88.0900,122.0,2.9,328.0,99.0,'11111222,11111222,11144222' 
ADCP,ioos:station:wmo:42364:1,2012-04-05T17:30:00Z,29.0600,-88.0900,122.0,4.7,226.0,99.0,'11111222,11111222,11144222' 
ADCP,ioos:station:wmo:42364:1,2012-04-05T19:30:00Z,29.0600,-88.0900,122.0,5.1,194.0,99.0,'11111222,11111222,11144222' 
ADCP,ioos:station:wmo:42364:1,2012-04-05T20:30:00Z,29.0600,-88.0900,122.0,6.1,209.0,99.0,'11111222,11111222,11144222' 
ADCP,ioos:station:wmo:42364:1,2012-04-05T22:30:00Z,29.0600,-88.0900,122.0,6.1,222.0,99.0,'11111222,11111222,11144222' 
ADCP,ioos:station:wmo:42364:1,2012-04-05T23:30:00Z,29.0600,-88.0900,122.0,3.2,257.0,99.0,'11111222,11111222,11144222' 
ADCP,ioos:station:wmo:42364:1,2012-04-06T00:30:00Z,29.0600,-88.0900,122.0,2.2,275.0,99.0,'11111222,11111222,11144222' 
ADCP,ioos:station:wmo:42364:1,2012-04-06T01:30:00Z,29.0600,-88.0900,122.0,2.3,265.0,99.0,'11111222,11111222,11144222' 
ADCP,ioos:station:wmo:42364:1,2012-04-06T02:30:00Z,29.0600,-88.0900,122.0,2.0,271.0,99.0,'11111222,11111222,11144222' 
ADCP,ioos:station:wmo:42364:1,2012-04-06T05:30:00Z,29.0600,-88.0900,122.0,2.4,270.0,99.0,'11111222,11111222,11144222' 
ADCP,ioos:station:wmo:42364:1,2012-04-06T06:30:00Z,29.0600,-88.0900,122.0,6.5,306.0,99.0,'11111222,11111222,11144222' 
ADCP,ioos:station:wmo:42364:1,2012-04-06T07:30:00Z,29.0600,-88.0900,122.0,12.4,351.0,99.0,'11111222,11111222,11144222' 
ADCP,ioos:station:wmo:42364:1,2012-04-06T08:30:00Z,29.0600,-88.0900,122.0,11.3,351.0,99.0,'11111222,11111222,11144222' 
ADCP,ioos:station:wmo:42364:1,2012-04-06T09:30:00Z,29.0600,-88.0900,122.0,10.6,350.0,99.0,'11111222,11111222,11144222' 
ADCP,ioos:station:wmo:42364:1,2012-04-06T10:30:00Z,29.0600,-88.0900,122.0,9.1,346.0,99.0,'11111222,11111222,11144222' 
ADCP,ioos:station:wmo:42364:1,2012-04-06T11:30:00Z,29.0600,-88.0900,122.0,8.6,340.0,99.0,'11111222,11111222,11144222' 
ADCP,ioos:station:wmo:42364:1,2012-04-06T12:30:00Z,29.0600,-88.0900,122.0,8.8,340.0,99.0,'11111222,11111222,11144222' 
ADCP,ioos:station:wmo:42364:1,2012-04-06T13:30:00Z,29.0600,-88.0900,122.0,8.7,340.0,99.0,'11111222,11111222,11144222' 
ADCP,ioos:station:wmo:42364:1,2012-04-06T14:30:00Z,29.0600,-88.0900,122.0,8.6,342.0,99.0,'11111222,11111222,11144222' 
ADCP,ioos:station:wmo:42364:1,2012-04-06T15:30:00Z,29.0600,-88.0900,122.0,7.8,340.0,99.0,'11111222,11111222,11144222' 
ADCP,ioos:station:wmo:42364:1,2012-04-06T16:30:00Z,29.0600,-88.0900,122.0,8.0,340.0,99.0,'11111222,11111222,11144222' 
ADCP,ioos:station:wmo:42364:1,2012-04-06T17:30:00Z,29.0600,-88.0900,122.0,8.6,341.0,99.0,'11111222,11111222,11144222' 
ADCP,ioos:station:wmo:42364:1,2012-04-06T19:30:00Z,29.0600,-88.0900,122.0,6.9,338.0,99.0,'11111222,11111222,11144222' 
ADCP,ioos:station:wmo:42364:1,2012-04-06T20:30:00Z,29.0600,-88.0900,122.0,8.9,343.0,99.0,'11111222,11111222,11144222' 
ADCP,ioos:station:wmo:42364:1,2012-04-06T21:30:00Z,29.0600,-88.0900,122.0,8.7,343.0,99.0,'11111222,11111222,11144222' 
ADCP,ioos:station:wmo:42364:1,2012-04-06T22:30:00Z,29.0600,-88.0900,122.0,8.3,346.0,99.0,'11111222,11111222,11144222' 
ADCP,ioos:station:wmo:42364:1,2012-04-06T23:30:00Z,29.0600,-88.0900,122.0,8.2,351.0,99.0,'11111222,11111222,11144222' 
ADCP,ioos:station:wmo:42364:1,2012-04-07T00:30:00Z,29.0600,-88.0900,122.0,7.9,360.0,99.0,'11111222,11144222,11144222' 
ADCP,ioos:station:wmo:42364:1,2012-04-07T01:30:00Z,29.0600,-88.0900,122.0,5.4,9.0,99.0,'11111222,11111222,11144222' 
ADCP,ioos:station:wmo:42364:1,2012-04-07T02:30:00Z,29.0600,-88.0900,122.0,4.2,21.0,99.0,'11111222,11111222,11144222' 
ADCP,ioos:station:wmo:42364:1,2012-04-07T03:30:00Z,29.0600,-88.0900,122.0,4.4,20.0,99.0,'11111222,11111222,11144222' 
ADCP,ioos:station:wmo:42364:1,2012-04-07T04:30:00Z,29.0600,-88.0900,122.0,4.7,15.0,99.0,'11111222,11111222,11144222' 
ADCP,ioos:station:wmo:42364:1,2012-04-07T05:30:00Z,29.0600,-88.0900,122.0,7.4,26.0,99.0,'11111222,11111222,11144222' 
ADCP,ioos:station:wmo:42364:1,2012-04-07T06:30:00Z,29.0600,-88.0900,122.0,5.5,55.0,99.0,'11111222,11111222,11144222' 
ADCP,ioos:station:wmo:42364:1,2012-04-07T07:30:00Z,29.0600,-88.0900,122.0,5.0,59.0,99.0,'11111222,11111222,11144222' 
ADCP,ioos:station:wmo:42364:1,2012-04-07T08:30:00Z,29.0600,-88.0900,122.0,6.5,40.0,99.0,'11111222,11111222,11144222' 
ADCP,ioos:station:wmo:42364:1,2012-04-07T11:30:00Z,29.0600,-88.0900,122.0,7.2,67.0,99.0,'11111222,11111222,11144222' 
ADCP,ioos:station:wmo:42364:1,2012-04-07T12:30:00Z,29.0600,-88.0900,122.0,6.4,70.0,99.0,'11111222,11111222,11144222' 
ADCP,ioos:station:wmo:42364:1,2012-04-07T13:30:00Z,29.0600,-88.0900,122.0,6.0,70.0,99.0,'11111222,11111222,11144222' 
ADCP,ioos:station:wmo:42364:1,2012-04-07T14:30:00Z,29.0600,-88.0900,122.0,5.4,74.0,99.0,'11111222,11111222,11144222' 
ADCP,ioos:station:wmo:42364:1,2012-04-07T15:30:00Z,29.0600,-88.0900,122.0,5.4,79.0,99.0,'11111222,11111222,11144222' 
ADCP,ioos:station:wmo:42364:1,2012-04-07T17:30:00Z,29.0600,-88.0900,122.0,5.2,87.0,99.0,'11111222,11111222,11144222' 
ADCP,ioos:station:wmo:42364:1,2012-04-07T18:30:00Z,29.0600,-88.0900,122.0,4.7,82.0,99.0,'11111222,11111222,11144222' 
ADCP,ioos:station:wmo:42364:1,2012-04-07T20:30:00Z,29.0600,-88.0900,122.0,5.9,71.0,99.0,'11111222,11111222,11144222' 
ADCP,ioos:station:wmo:42364:1,2012-04-07T21:30:00Z,29.0600,-88.0900,122.0,6.2,70.0,99.0,'11111222,11111222,11144222' 
ADCP,ioos:station:wmo:42364:1,2012-04-07T22:30:00Z,29.0600,-88.0900,122.0,6.1,71.0,99.0,'11111222,11111222,11144222' 
ADCP,ioos:station:wmo:42364:1,2012-04-07T23:30:00Z,29.0600,-88.0900,122.0,5.3,76.0,99.0,'11111222,11111222,11144222' 
ADCP,ioos:station:wmo:42364:1,2012-04-08T00:30:00Z,29.0600,-88.0900,122.0,5.4,66.0,99.0,'11111222,11111222,11144222' 
ADCP,ioos:station:wmo:42364:1,2012-04-08T01:30:00Z,29.0600,-88.0900,122.0,5.2,75.0,99.0,'11111222,11111222,11144222' 
ADCP,ioos:station:wmo:42364:1,2012-04-08T02:30:00Z,29.0600,-88.0900,122.0,5.3,74.0,99.0,'11111222,11111222,11144222' 
ADCP,ioos:station:wmo:42364:1,2012-04-08T03:30:00Z,29.0600,-88.0900,122.0,4.0,75.0,99.0,'11111222,11111222,11144222' 
ADCP,ioos:station:wmo:42364:1,2012-04-08T04:30:00Z,29.0600,-88.0900,122.0,3.5,72.0,99.0,'11111222,11111222,11144222' 
ADCP,ioos:station:wmo:42364:1,2012-04-08T05:30:00Z,29.0600,-88.0900,122.0,4.0,82.0,99.0,'11111222,11111222,11144222' 
ADCP,ioos:station:wmo:42364:1,2012-04-08T06:30:00Z,29.0600,-88.0900,122.0,4.5,85.0,99.0,'11111222,11111222,11144222' 
ADCP,ioos:station:wmo:42364:1,2012-04-08T07:30:00Z,29.0600,-88.0900,122.0,3.1,92.0,99.0,'11111222,11111222,11144222' 
ADCP,ioos:station:wmo:42364:1,2012-04-08T08:30:00Z,29.0600,-88.0900,122.0,4.1,80.0,99.0,'11111222,11111222,11144222' 
ADCP,ioos:station:wmo:42364:1,2012-04-08T09:30:00Z,29.0600,-88.0900,122.0,4.1,69.0,99.0,'11111222,11111222,11144222' 
ADCP,ioos:station:wmo:42364:1,2012-04-08T10:30:00Z,29.0600,-88.0900,122.0,4.1,57.0,99.0,'11111222,11111222,11144222' 
ADCP,ioos:station:wmo:42364:1,2012-04-08T11:30:00Z,29.0600,-88.0900,122.0,6.3,29.0,99.0,'11111222,11111222,11144222' 
ADCP,ioos:station:wmo:42364:1,2012-04-08T12:30:00Z,29.0600,-88.0900,122.0,6.6,29.0,99.0,'11111222,11111222,11144222' 
ADCP,ioos:station:wmo:42364:1,2012-04-08T13:30:00Z,29.0600,-88.0900,122.0,5.8,38.0,99.0,'11111222,11111222,11144222' 
ADCP,ioos:station:wmo:42364:1,2012-04-08T14:30:00Z,29.0600,-88.0900,122.0,5.6,38.0,99.0,'11111222,11111222,11144222' 
ADCP,ioos:station:wmo:42364:1,2012-04-08T15:30:00Z,29.0600,-88.0900,122.0,5.2,45.0,99.0,'11111222,11111222,11144222' 
ADCP,ioos:station:wmo:42364:1,2012-04-08T16:30:00Z,29.0600,-88.0900,122.0,5.2,41.0,99.0,'11111222,11111222,11144222' 
ADCP,ioos:station:wmo:42364:1,2012-04-08T18:30:00Z,29.0600,-88.0900,122.0,4.5,35.0,99.0,'11111222,11111222,11144222' 
ADCP,ioos:station:wmo:42364:1,2012-04-08T19:30:00Z,29.0600,-88.0900,122.0,5.8,16.0,99.0,'11111222,11111222,11144222' 
ADCP,ioos:station:wmo:42364:1,2012-04-08T20:30:00Z,29.0600,-88.0900,122.0,5.8,17.0,99.0,'11111222,11111222,11144222' 
ADCP,ioos:station:wmo:42364:1,2012-04-08T21:30:00Z,29.0600,-88.0900,122.0,6.0,16.0,99.0,'11111222,11111222,11144222' 
ADCP,ioos:station:wmo:42364:1,2012-04-08T22:30:00Z,29.0600,-88.0900,122.0,5.4,20.0,99.0,'11111222,11111222,11144222' 
ADCP,ioos:station:wmo:42364:1,2012-04-08T23:30:00Z,29.0600,-88.0900,122.0,5.2,22.0,99.0,'11111222,11111222,11144222' 
ADCP,ioos:station:wmo:42364:1,2012-04-09T00:30:00Z,29.0600,-88.0900,122.0,4.7,29.0,99.0,'11111222,11111222,11144222' 
ADCP,ioos:station:wmo:42364:1,2012-04-09T01:30:00Z,29.0600,-88.0900,122.0,3.6,53.0,99.0,'11111222,11111222,11144222' 
ADCP,ioos:station:wmo:42364:1,2012-04-09T02:30:00Z,29.0600,-88.0900,122.0,2.8,90.0,99.0,'11111222,11111222,11144222' 
ADCP,ioos:station:wmo:42364:1,2012-04-09T03:30:00Z,29.0600,-88.0900,122.0,1.9,117.0,99.0,'11111222,11111222,11144222' 
ADCP,ioos:station:wmo:42364:1,2012-04-09T04:30:00Z,29.0600,-88.0900,122.0,1.0,92.0,99.0,'11111222,11111222,11144222' 
ADCP,ioos:station:wmo:42364:1,2012-04-09T05:30:00Z,29.0600,-88.0900,122.0,0.3,32.0,99.0,'11111222,11111222,11144222' 
ADCP,ioos:station:wmo:42364:1,2012-04-09T06:30:00Z,29.0600,-88.0900,122.0,0.0,0.0,99.0,'11111222,11111222,11144222' 
ADCP,ioos:station:wmo:42364:1,2012-04-09T09:30:00Z,29.0600,-88.0900,122.0,1.2,347.0,99.0,'11111222,11111222,11144222' 
ADCP,ioos:station:wmo:42364:1,2012-04-09T10:30:00Z,29.0600,-88.0900,122.0,0.5,358.0,99.0,'11111222,11111222,11144222' 
ADCP,ioos:station:wmo:42364:1,2012-04-09T11:30:00Z,29.0600,-88.0900,122.0,0.0,0.0,99.0,'11111222,11111222,11144222' 
ADCP,ioos:station:wmo:42364:1,2012-04-09T12:30:00Z,29.0600,-88.0900,122.0,0.1,359.0,99.0,'11111222,11111222,11144222' 
ADCP,ioos:station:wmo:42364:1,2012-04-09T13:30:00Z,29.0600,-88.0900,122.0,1.0,342.0,99.0,'11111222,11111222,11144222' 
ADCP,ioos:station:wmo:42364:1,2012-04-09T14:30:00Z,29.0600,-88.0900,122.0,1.4,332.0,99.0,'11111222,11111222,11144222' 
ADCP,ioos:station:wmo:42364:1,2012-04-09T15:30:00Z,29.0600,-88.0900,122.0,0.7,347.0,99.0,'11111222,11111222,11144222' 
ADCP,ioos:station:wmo:42364:1,2012-04-09T17:30:00Z,29.0600,-88.0900,122.0,0.2,352.0,99.0,'11111222,11111222,11144222' 
ADCP,ioos:station:wmo:42364:1,2012-04-09T19:30:00Z,29.0600,-88.0900,122.0,1.2,329.0,99.0,'11111222,11111222,11144222' 
ADCP,ioos:station:wmo:42364:1,2012-04-09T22:30:00Z,29.0600,-88.0900,122.0,1.3,319.0,99.0,'11111222,11111222,11144222' 
ADCP,ioos:station:wmo:42364:1,2012-04-09T23:30:00Z,29.0600,-88.0900,122.0,2.2,316.0,99.0,'11111222,11111222,11144222' 
ADCP,ioos:station:wmo:42364:1,2012-04-10T00:30:00Z,29.0600,-88.0900,122.0,2.1,327.0,99.0,'11111222,11111222,11144222' 
ADCP,ioos:station:wmo:42364:1,2012-04-10T01:30:00Z,29.0600,-88.0900,122.0,2.2,330.0,99.0,'11111222,11111222,11144222' 
ADCP,ioos:station:wmo:42364:1,2012-04-10T02:30:00Z,29.0600,-88.0900,122.0,1.9,331.0,99.0,'11111222,11111222,11144222' 
ADCP,ioos:station:wmo:42364:1,2012-04-10T03:30:00Z,29.0600,-88.0900,122.0,0.5,355.0,99.0,'11111222,11111222,11144222' 
ADCP,ioos:station:wmo:42364:1,2012-04-10T04:30:00Z,29.0600,-88.0900,122.0,0.7,345.0,99.0,'11111222,11111222,11144222' 
ADCP,ioos:station:wmo:42364:1,2012-04-10T05:30:00Z,29.0600,-88.0900,122.0,2.3,330.0,99.0,'11111222,11111222,11144222' 
ADCP,ioos:station:wmo:42364:1,2012-04-10T06:30:00Z,29.0600,-88.0900,122.0,2.9,333.0,99.0,'11111222,11111222,11144222' 
ADCP,ioos:station:wmo:42364:1,2012-04-10T07:30:00Z,29.0600,-88.0900,122.0,2.8,332.0,99.0,'11111222,11111222,11144222' 
ADCP,ioos:station:wmo:42364:1,2012-04-10T08:30:00Z,29.0600,-88.0900,122.0,3.6,336.0,99.0,'11111222,11111222,11144222' 
ADCP,ioos:station:wmo:42364:1,2012-04-10T09:30:00Z,29.0600,-88.0900,122.0,5.6,343.0,99.0,'11111222,11111222,11144222' 
ADCP,ioos:station:wmo:42364:1,2012-04-10T10:30:00Z,29.0600,-88.0900,122.0,6.3,351.0,99.0,'11111222,11111222,11144222' 
ADCP,ioos:station:wmo:42364:1,2012-04-10T11:30:00Z,29.0600,-88.0900,122.0,5.8,16.0,99.0,'11111222,11111222,11144222' 